[[{"header":{"parameterUnit":"m.s-1","parameterCategory":1,"la1":30.2991,"la2":30.254,"lo1":-89.0895,"lo2":-89.0444,"dy":0.0017,"dx":0.0017,"nx":28,"ny":28,"refTime":"2025-03-09T21:00:00:Z","depth":0,"parameterNumber":2,"parameterNumberName":"U-component_of_WINDS"},"data":[0,0,0,0,0,0,0,0,0,0,0,0,0,0,0,0,0,0,0,0,0,0,0,0,0,0,0,0,0,0,0,0,0,0,0,0,0,0,0,0,0,0,0,0,0,0,0,0,0,0,0,0,0,0,0,0,0,0,2.1147,2.1147,0,2.1188,2.1188,2.1188,2.1159,2.1158,2.1156,2.1155,2.12,2.1203,2.1205,0,0,0,0,0,0,0,0,0,0,0,0,0,2.105,2.1051,2.1147,2.1147,2.1148,2.1187,2.1188,2.1189,2.1159,2.1158,2.1156,2.1154,2.1199,2.1202,2.1205,0,0,0,0,0,0,0,0,0,0,0,0,0,2.1091,2.1052,2.1147,2.1138,2.1138,2.1187,2.1188,2.1189,2.116,2.1158,2.1156,2.1154,2.1198,2.1202,2.1206,2.1267,0,0,2.1217,2.1218,0,0,0,0,0,0,0,0,2.1089,2.1095,2.1139,2.1139,2.1138,2.1166,2.117,2.1215,2.116,2.1151,2.1155,2.1153,2.1191,2.1195,2.1207,2.127,2.1271,2.1217,2.1219,2.1221,2.1222,0,0,0,0,0,0,0,2.1086,2.1093,2.1163,2.1139,2.1139,2.1134,2.1138,2.1179,2.1182,2.1152,2.115,2.1155,2.119,2.1203,2.1208,2.1272,2.1217,2.122,2.1222,2.1224,2.1392,2.1394,0,0,0,0,0,0,2.1083,2.1091,2.1162,2.1164,2.1108,2.1137,2.1141,2.1159,2.1181,2.1182,2.1156,2.1153,2.1198,2.1204,2.1209,2.1286,2.1221,2.1224,2.1226,2.139,2.1392,2.1395,0,0,0,0,0,0,2.1081,2.109,2.116,2.1127,2.1136,2.1141,2.1161,2.1161,2.1174,2.1184,2.1185,2.1169,2.1197,2.1204,2.1254,2.1287,2.1226,2.1229,2.1387,2.139,2.1393,2.1438,0,0,0,0,0,0,2.1079,2.1089,2.1111,2.1128,2.1137,2.1203,2.1163,2.1163,2.118,2.1176,2.1197,2.1198,2.1196,2.1249,2.1257,2.1291,2.1232,2.1384,2.1388,2.1392,2.1433,2.1442,2.145,0,0,0,0,0,2.1075,2.1122,2.1113,2.1121,2.1165,2.1204,2.121,2.1206,2.1183,2.1206,2.1214,2.1197,2.1281,2.1254,2.1264,2.1299,2.1382,2.1387,2.1392,2.143,2.144,2.145,0,0,0,0,0,0,2.111,2.1124,2.1114,2.1167,2.1185,2.1199,2.1228,2.1217,2.1242,2.1238,2.1232,2.1237,2.129,2.1299,2.1268,2.1362,2.1328,2.1336,2.1354,2.1364,2.1372,2.137,2.1235,0,0,0,0,0,2.1124,2.1154,2.1165,2.1211,2.122,2.1223,2.124,2.1235,2.1254,2.1261,2.1272,2.1292,2.1323,2.1344,2.1373,2.1434,2.144,2.1463,2.1472,2.1478,2.1485,2.1522,2.1533,2.1412,2.1412,2.1411,0,0,2.1153,2.1165,2.1183,2.1218,2.1231,2.1264,2.1229,2.1265,2.129,2.1267,2.1315,2.1324,2.1346,2.1403,2.1428,2.1412,2.152,2.1485,2.149,2.1493,2.1529,2.154,2.155,2.1415,2.1414,2.1414,0,0,2.1224,2.1234,2.1275,2.1289,2.1309,2.1311,2.1321,2.1338,2.1343,2.1391,2.1376,2.1406,2.1459,2.1476,2.1492,2.1572,2.156,2.1582,2.1625,2.1661,2.1671,2.1679,2.1711,2.1722,2.1588,2.1588,2.1588,0,2.1258,2.1305,2.1297,2.1335,2.1352,2.1332,2.1376,2.139,2.1419,2.1433,2.1414,2.1482,2.1495,2.1557,2.1577,2.159,2.1603,2.158,2.167,2.1678,2.1686,2.1716,2.1728,2.1591,2.1591,2.1591,2.159,0,2.1347,2.138,2.1411,2.144,2.146,2.15,2.1502,2.1524,2.1518,2.1522,2.1574,2.1589,2.1622,2.1636,2.1631,2.1699,2.1689,2.167,2.1637,2.1701,2.1729,2.174,2.1595,2.1594,2.1593,2.1593,0,0,2.144,2.1465,2.1477,2.1491,2.1513,2.154,2.1581,2.1613,2.1633,2.1654,2.169,2.1737,2.172,2.1738,2.1735,2.1766,2.1832,2.1744,2.1744,2.1762,2.1913,2.1928,2.1941,2.1824,2.1826,2.1827,2.1912,0,2.1513,2.1583,2.1579,2.1645,2.1677,2.166,2.1696,2.1715,2.1721,2.1751,2.1759,2.1793,2.1767,2.1778,2.1808,2.1818,2.1863,2.1811,2.186,2.1862,2.1857,2.1956,2.1972,2.205,2.1922,2.1924,2.1925,0,2.1608,2.1633,2.1702,2.1722,2.1736,2.1767,2.1798,2.1826,2.1849,2.1851,2.1873,2.1865,2.1909,2.1874,2.1936,2.1901,2.1921,2.1929,2.1932,2.1938,2.1899,2.1967,2.2075,2.2088,2.1942,2.1941,2.194,0,2.1672,2.1723,2.1772,2.1784,2.1808,2.1831,2.1843,2.1863,2.1883,2.1911,2.1924,2.1957,2.1975,2.2002,2.2004,2.1977,2.2068,2.2032,2.2074,2.2074,2.2095,2.2094,2.221,2.2104,2.2104,2.2103,2.2103,0,2.1756,2.18,2.1801,2.1832,2.1881,2.1877,2.1927,2.1936,2.1955,2.1989,2.1976,2.2008,2.2008,2.2042,2.2044,2.2097,2.2105,2.211,2.2111,2.2113,2.2112,2.2127,2.2122,2.2107,2.2106,2.2105,2.2105,0,2.1836,2.1839,2.1891,2.191,2.1916,2.1952,2.1969,2.1999,2.2005,2.2048,2.2058,2.2067,2.2106,2.2111,2.2157,2.2158,2.2224,2.2217,2.2216,2.2216,2.2258,2.2255,2.239,2.2409,2.2288,2.2289,2.229,0,2.189,2.1924,2.1946,2.1967,2.198,2.2014,2.2035,2.2033,2.2056,2.2086,2.2114,2.2151,2.2182,2.2246,2.2258,2.2294,2.229,2.2335,2.2296,2.2298,2.2294,2.2293,2.2298,2.2343,2.2344,2.2345,2.2346,0,2.1987,2.1987,2.2017,2.2049,2.2075,2.2099,2.2123,2.2142,2.2143,2.217,2.221,2.2234,2.2281,2.232,2.2356,2.237,2.236,2.2359,2.2371,2.2374,2.2373,2.2377,2.2239,2.2356,2.2355,2.2354,2.2354,2.2353,2.2058,2.2088,2.2109,2.2144,2.2162,2.2185,2.2215,2.2224,2.2257,2.2295,2.2292,2.2337,2.2362,2.2409,2.2426,2.2463,2.2448,2.2465,2.247,2.2475,2.248,2.2366,2.2469,2.2469,2.2469,2.2468,2.2468,0,2.2157,2.217,2.2202,2.2235,2.2264,2.225,2.2276,2.2302,2.2341,2.2364,2.2394,2.2442,2.2481,2.2496,2.2535,2.2562,2.2559,2.2572,2.2572,2.2576,2.249,2.2477,2.2575,2.2575,2.2575,2.2575,2.2575,2.2575,2.2211,2.2262,2.2266,2.2327,2.234,2.2383,2.24,2.2422,2.2441,2.2494,2.2526,2.2535,2.2557,2.2597,2.2633,2.2637,2.2653,2.267,2.2672,2.2592,2.2581,2.2571,2.2559,2.2673,2.2673,2.2756,2.2756,2.2757]},{"header":{"parameterUnit":"m.s-1","parameterCategory":1,"la1":30.2991,"la2":30.254,"lo1":-89.0895,"lo2":-89.0444,"dy":0.0017,"dx":0.0017,"nx":28,"ny":28,"refTime":"2025-03-09T21:00:00:Z","depth":0,"parameterNumber":3,"parameterNumberName":"V-component_of_WINDS"},"data":[0,0,0,0,0,0,0,0,0,0,0,0,0,0,0,0,0,0,0,0,0,0,0,0,0,0,0,0,0,0,0,0,0,0,0,0,0,0,0,0,0,0,0,0,0,0,0,0,0,0,0,0,0,0,0,0,0,0,-2.5444,-2.5444,0,-2.5439,-2.5439,-2.5439,-2.5446,-2.5446,-2.5446,-2.5447,-2.5439,-2.5439,-2.5438,0,0,0,0,0,0,0,0,0,0,0,0,0,-2.5459,-2.5459,-2.5444,-2.5444,-2.5444,-2.5439,-2.5439,-2.5439,-2.5446,-2.5446,-2.5447,-2.5447,-2.5439,-2.5439,-2.5438,0,0,0,0,0,0,0,0,0,0,0,0,0,-2.5453,-2.5459,-2.5444,-2.5447,-2.5447,-2.5439,-2.5439,-2.5439,-2.5446,-2.5446,-2.5447,-2.5447,-2.544,-2.5439,-2.5438,-2.5426,0,0,-2.5436,-2.5436,0,0,0,0,0,0,0,0,-2.5453,-2.5452,-2.5447,-2.5447,-2.5447,-2.5443,-2.5441,-2.5434,-2.5446,-2.5446,-2.5447,-2.5447,-2.544,-2.544,-2.5438,-2.5426,-2.5425,-2.5436,-2.5436,-2.5435,-2.5435,0,0,0,0,0,0,0,-2.5454,-2.5453,-2.5442,-2.5447,-2.5447,-2.5448,-2.5448,-2.544,-2.5441,-2.5446,-2.5447,-2.5446,-2.544,-2.5438,-2.5437,-2.5425,-2.5436,-2.5436,-2.5435,-2.5435,-2.5402,-2.5401,0,0,0,0,0,0,-2.5454,-2.5453,-2.5442,-2.5442,-2.5451,-2.5447,-2.5447,-2.5444,-2.5441,-2.5441,-2.5446,-2.5447,-2.5439,-2.5438,-2.5437,-2.5422,-2.5435,-2.5435,-2.5434,-2.5402,-2.5402,-2.5401,0,0,0,0,0,0,-2.5454,-2.5453,-2.5442,-2.5448,-2.5446,-2.5447,-2.5444,-2.5444,-2.5442,-2.5441,-2.5441,-2.5443,-2.5439,-2.5438,-2.5429,-2.5421,-2.5435,-2.5434,-2.5403,-2.5402,-2.5401,-2.5391,0,0,0,0,0,0,-2.5455,-2.5453,-2.5449,-2.5447,-2.5446,-2.5435,-2.5443,-2.5443,-2.5441,-2.5442,-2.5439,-2.5438,-2.544,-2.543,-2.5428,-2.5421,-2.5433,-2.5403,-2.5403,-2.5402,-2.5392,-2.539,-2.5388,0,0,0,0,0,-2.5455,-2.5446,-2.5449,-2.5447,-2.5441,-2.5434,-2.5433,-2.5435,-2.544,-2.5436,-2.5435,-2.5439,-2.5423,-2.5429,-2.5427,-2.5419,-2.5404,-2.5403,-2.5402,-2.5393,-2.539,-2.5388,0,0,0,0,0,0,-2.5446,-2.5446,-2.5449,-2.5439,-2.5437,-2.5435,-2.543,-2.5433,-2.5428,-2.5429,-2.5432,-2.5431,-2.542,-2.5419,-2.5426,-2.5407,-2.5414,-2.5413,-2.5408,-2.5406,-2.5404,-2.5404,-2.5433,0,0,0,0,0,-2.5443,-2.5438,-2.5438,-2.5429,-2.5428,-2.5429,-2.5426,-2.5428,-2.5425,-2.5424,-2.5423,-2.5419,-2.5414,-2.541,-2.5404,-2.5392,-2.5391,-2.5386,-2.5384,-2.5383,-2.5381,-2.5373,-2.537,-2.5398,-2.5398,-2.5398,0,0,-2.5437,-2.5436,-2.5433,-2.5428,-2.5426,-2.542,-2.5428,-2.5422,-2.5417,-2.5423,-2.5414,-2.5413,-2.5409,-2.5398,-2.5393,-2.5396,-2.5373,-2.5381,-2.538,-2.5379,-2.5372,-2.5369,-2.5367,-2.5397,-2.5397,-2.5397,0,0,-2.5421,-2.5421,-2.5413,-2.5411,-2.5409,-2.5409,-2.5408,-2.5406,-2.5405,-2.5396,-2.54,-2.5395,-2.5385,-2.5382,-2.5379,-2.5362,-2.5365,-2.536,-2.535,-2.5343,-2.534,-2.5338,-2.5331,-2.5328,-2.5359,-2.5359,-2.5359,0,-2.5413,-2.5405,-2.5409,-2.5402,-2.5399,-2.5405,-2.5396,-2.5394,-2.539,-2.5387,-2.5392,-2.5379,-2.5377,-2.5364,-2.536,-2.5358,-2.5355,-2.536,-2.5341,-2.5339,-2.5337,-2.533,-2.5327,-2.5358,-2.5358,-2.5358,-2.5359,0,-2.5395,-2.5389,-2.5383,-2.5379,-2.5375,-2.5368,-2.5369,-2.5365,-2.5367,-2.5367,-2.5357,-2.5355,-2.5349,-2.5346,-2.5348,-2.5334,-2.5336,-2.5341,-2.5348,-2.5334,-2.5327,-2.5324,-2.5357,-2.5358,-2.5358,-2.5358,0,0,-2.5373,-2.5371,-2.5368,-2.5366,-2.5364,-2.5359,-2.5351,-2.5346,-2.5341,-2.5338,-2.5331,-2.5323,-2.5327,-2.5323,-2.5325,-2.5318,-2.5303,-2.5324,-2.5323,-2.5318,-2.5285,-2.528,-2.5277,-2.5306,-2.5305,-2.5305,-2.5285,0,-2.5356,-2.5343,-2.5346,-2.5333,-2.5327,-2.5332,-2.5325,-2.5323,-2.5322,-2.5317,-2.5316,-2.531,-2.5316,-2.5314,-2.5308,-2.5306,-2.5296,-2.5308,-2.5297,-2.5297,-2.5296,-2.5274,-2.5269,-2.5251,-2.5282,-2.5282,-2.5282,0,-2.5335,-2.5332,-2.5318,-2.5316,-2.5313,-2.5307,-2.5302,-2.5297,-2.5293,-2.5293,-2.529,-2.5292,-2.5284,-2.5292,-2.5279,-2.5287,-2.5283,-2.5281,-2.5281,-2.5278,-2.5287,-2.527,-2.5245,-2.5241,-2.5278,-2.5278,-2.5278,0,-2.5319,-2.5311,-2.5301,-2.5299,-2.5297,-2.5292,-2.5291,-2.5288,-2.5284,-2.5279,-2.5277,-2.5271,-2.5267,-2.5262,-2.5263,-2.5269,-2.5249,-2.5258,-2.5247,-2.5247,-2.5242,-2.5242,-2.5214,-2.5242,-2.5242,-2.5242,-2.5242,0,-2.53,-2.5291,-2.5294,-2.5287,-2.5277,-2.528,-2.527,-2.5269,-2.5266,-2.526,-2.5264,-2.5257,-2.5259,-2.5252,-2.5253,-2.5241,-2.524,-2.5239,-2.5239,-2.5237,-2.5237,-2.5233,-2.5234,-2.5241,-2.5241,-2.5241,-2.5241,0,-2.5279,-2.5281,-2.527,-2.5269,-2.5269,-2.5261,-2.5259,-2.5253,-2.5253,-2.5244,-2.5243,-2.5242,-2.5234,-2.5235,-2.5226,-2.5226,-2.5211,-2.5213,-2.5212,-2.5212,-2.5201,-2.5201,-2.5169,-2.5164,-2.5196,-2.5196,-2.5196,0,-2.5266,-2.5259,-2.5257,-2.5253,-2.5251,-2.5245,-2.5241,-2.5244,-2.5239,-2.5235,-2.5229,-2.5221,-2.5215,-2.5202,-2.52,-2.5193,-2.5194,-2.5183,-2.5193,-2.5191,-2.5192,-2.5191,-2.519,-2.5181,-2.518,-2.518,-2.518,0,-2.5241,-2.5243,-2.5237,-2.5232,-2.5227,-2.5223,-2.5219,-2.5216,-2.5218,-2.5213,-2.5205,-2.52,-2.5191,-2.5183,-2.5176,-2.5173,-2.5176,-2.5177,-2.5174,-2.5172,-2.5171,-2.5169,-2.5205,-2.5177,-2.5178,-2.5178,-2.5178,-2.5178,-2.5223,-2.5217,-2.5214,-2.5208,-2.5205,-2.5202,-2.5195,-2.5195,-2.5189,-2.5181,-2.5183,-2.5174,-2.517,-2.5161,-2.5158,-2.515,-2.5153,-2.5149,-2.5148,-2.5146,-2.5144,-2.5173,-2.5148,-2.5149,-2.5149,-2.5149,-2.5149,0,-2.5197,-2.5196,-2.519,-2.5185,-2.518,-2.5184,-2.518,-2.5175,-2.5167,-2.5163,-2.5157,-2.5147,-2.5139,-2.5137,-2.5129,-2.5123,-2.5124,-2.5121,-2.512,-2.5119,-2.5142,-2.5145,-2.512,-2.512,-2.512,-2.512,-2.512,-2.512,-2.5183,-2.5173,-2.5173,-2.5161,-2.516,-2.5151,-2.5148,-2.5144,-2.5141,-2.513,-2.5124,-2.5123,-2.5119,-2.5111,-2.5103,-2.5103,-2.5099,-2.5094,-2.5094,-2.5115,-2.5118,-2.5121,-2.5123,-2.5094,-2.5094,-2.5072,-2.5071,-2.5071]}]]